CAPE
0 0 0 0 0 0 0 0 0 0 0 0 0 0 0 0 0 0 0 0 0 0 0 0 0 0 0 0 0 0 0 0 0 0 0 0 0 0 0 606 1508 1924 2022 1852
0 0 0 0 0 0 0 0 0 0 0 0 0 0 0 0 0 0 0 0 0 0 0 0 0 0 0 0 0 0 0 0 0 0 0 0 0 0 0 0 1035 1319 1933 1891
0 0 0 0 0 0 0 0 0 0 0 0 0 0 0 0 0 0 0 0 0 0 0 0 0 0 0 0 0 0 0 0 0 1 1 0 0 0 0 0 426 900 1264 1970
0 0 0 0 0 0 0 0 0 0 0 0 0 0 0 0 0 0 0 0 0 0 0 0 0 0 0 0 0 0 0 2 2 3 1 3 3 0 0 0 0 998 946 1266
0 0 0 0 0 0 0 0 0 0 0 0 0 0 0 0 0 0 0 0 0 0 0 0 0 0 0 0 0 0 0 2 2 1 2 4 3 0 0 10 0 105 678 440
0 0 0 0 0 0 0 0 0 0 0 0 0 0 0 0 0 0 0 0 0 0 0 0 0 0 0 0 0 0 1 2 1 1 1 2 4 2 0 29 0 260 613 804
0 0 0 0 0 0 0 0 0 0 0 0 0 0 0 0 0 0 0 0 0 0 0 0 0 1 0 1 2 1 1 2 1 1 2 2 3 2 0 20 0 82 537 673
0 0 0 0 0 0 0 0 0 0 0 0 0 0 0 0 0 0 0 0 0 0 0 0 0 0 0 1 1 0 1 2 1 1 2 0 2 16 133 21 0 0 821 757
0 0 0 0 0 0 0 0 0 0 0 0 0 0 0 0 0 0 0 0 0 0 0 0 0 0 0 2 3 0 1 1 1 2 1 0 2 0 84 0 0 0 17 615
0 0 0 0 0 0 0 0 0 0 0 0 0 0 0 0 0 0 0 0 0 0 0 0 0 0 0 2 2 0 1 1 1 2 2 2 1 3 115 92 0 0 283 189
0 0 0 0 0 0 0 0 0 0 0 0 0 0 0 0 0 0 0 0 0 0 0 0 0 0 0 1 1 1 1 1 1 1 2 2 3 3 2 69 104 91 0 216
0 0 0 0 0 0 0 0 0 0 0 0 0 0 0 0 0 0 0 0 0 0 0 0 0 0 0 1 1 1 1 1 1 1 2 3 2 3 4 5 0 82 266 165
0 0 0 0 0 0 0 0 0 0 0 0 0 0 0 0 0 0 0 0 0 0 0 0 0 0 0 0 1 2 1 1 1 1 2 2 2 3 3 6 6 3 0 0
0 0 0 0 0 0 0 0 0 0 0 0 0 0 2 0 0 0 0 0 0 0 0 0 0 0 0 0 0 1 1 0 1 0 1 2 2 4 5 6 8 7 7 0
0 0 0 0 0 0 0 0 0 0 0 0 0 0 0 0 0 0 0 0 0 0 0 0 0 0 0 0 0 0 0 1 1 1 1 1 1 1 4 6 5 8 9 5
0 0 0 0 0 0 0 0 0 0 0 0 0 0 0 0 0 0 0 0 0 0 0 0 0 0 0 0 0 0 0 0 0 1 1 1 1 1 3 3 5 6 9 11
0 0 0 0 0 0 0 0 0 0 0 0 0 0 0 0 0 0 0 0 0 0 0 0 0 0 0 0 0 0 0 0 0 0 1 1 1 2 2 2 4 5 8 6
0 0 0 0 0 0 0 0 0 0 0 0 0 0 0 0 0 0 0 0 0 0 0 0 0 0 0 0 0 0 0 0 0 0 0 2 1 1 2 1 2 3 3 7
0 0 0 0 0 0 0 0 0 0 0 0 0 0 0 0 0 0 0 0 0 0 0 0 0 0 0 0 0 0 0 0 0 0 0 1 1 1 2 3 2 1 3 3
0 0 0 0 0 0 0 0 0 0 0 0 0 0 0 0 0 0 0 0 0 0 0 0 0 0 0 0 0 0 0 0 0 0 0 0 0 1 1 2 2 1 2 4
0 0 0 0 0 0 0 0 0 0 0 0 0 0 0 0 0 0 0 0 0 0 0 0 0 0 0 0 0 0 0 0 0 0 0 0 0 0 1 1 2 1 1 2
0 0 0 0 0 0 0 0 0 0 0 0 0 0 0 0 0 0 0 0 0 0 0 0 0 0 0 0 0 0 0 0 0 0 0 0 0 0 0 0 0 1 3 4
0 0 0 0 2 0 0 0 0 0 0 0 0 0 0 0 0 0 0 0 0 0 0 0 0 0 0 0 0 0 0 0 0 0 0 0 0 0 0 0 0 0 2 4
0 0 15 10 1 0 0 0 0 0 0 0 0 0 0 0 0 0 0 0 0 0 0 0 0 0 0 0 0 0 0 0 0 0 0 0 0 0 0 0 0 0 1 2
5 3 26 15 1 0 0 0 0 0 0 0 0 0 0 0 0 0 0 0 0 0 0 0 0 0 0 0 0 1 0 0 0 0 0 0 0 0 0 0 0 1 0 0
0 0 3 1 0 0 0 0 0 0 0 2 1 0 0 0 0 0 0 0 0 0 0 0 0 0 0 0 0 1 0 0 0 0 0 0 0 0 0 0 0 1 0 0
CIN
0 0 0 0 0 0 0 0 0 0 0 0 0 0 0 0 0 0 0 0 0 0 0 0 0 0 0 0 0 0 0 0 0 0 0 0 0 0 0 -63 -3 -3 -30 -102
0 0 0 0 0 0 0 0 0 0 0 0 0 0 0 0 0 0 0 0 0 0 0 0 0 0 0 0 0 0 0 0 0 0 0 0 0 0 0 0 -19 -20 -17 -65
0 0 0 0 0 0 0 0 0 0 0 0 0 0 0 0 0 0 0 0 0 0 0 0 0 0 0 0 0 0 0 0 0 0 0 0 0 0 0 0 -11 -33 -29 -51
0 0 0 0 0 0 0 0 0 0 0 0 0 0 0 0 0 0 0 0 0 0 0 0 0 0 0 0 0 0 0 -0 0 0 0 0 0 0 0 0 0 -18 -41 -3
0 0 0 0 0 0 0 0 0 0 0 0 0 0 0 0 0 0 0 0 0 0 0 0 0 0 0 0 0 0 -0 -0 0 0 0 0 0 0 0 -94 0 -51 -66 -16
0 0 0 0 0 0 0 0 0 0 0 0 0 0 0 0 0 0 0 0 0 0 0 0 0 0 0 0 -0 -0 -0 -0 0 -0 0 0 0 0 0 -245 0 -15 -42 -40
0 0 0 0 0 0 0 0 0 0 0 0 0 0 0 0 0 0 0 0 0 0 0 0 0 -1 0 -0 0 -0 -0 0 0 -0 0 0 0 0 0 -131 0 -44 -21 -61
0 0 0 0 0 0 0 0 0 0 0 0 0 0 0 0 0 0 0 0 0 0 0 0 0 -1 0 -0 -0 0 0 0 0 0 0 0 0 -136 -21 -38 0 0 -7 -40
0 0 0 0 0 0 0 0 0 0 0 0 0 0 0 0 0 0 0 0 0 0 0 0 0 0 0 -0 0 -0 0 0 0 0 0 0 0 0 -17 0 0 0 -85 -29
0 0 0 0 0 0 0 0 0 0 0 0 0 0 0 0 0 0 0 0 0 0 0 0 0 0 0 -0 -0 -0 0 0 0 0 0 0 0 0 -161 -24 0 0 -51 -47
0 0 0 0 0 0 0 0 0 0 0 0 0 0 0 0 0 0 0 0 0 0 0 0 0 0 0 -0 0 0 0 0 0 0 0 0 0 0 0 -138 -87 -21 0 -21
0 0 0 0 0 0 0 0 0 0 0 0 0 0 0 0 0 0 0 0 0 0 0 0 0 0 0 0 0 0 0 0 0 0 0 0 0 0 0 0 0 -200 -53 -110
0 0 0 0 0 0 0 0 0 0 0 0 0 0 0 0 0 0 0 0 0 0 0 0 0 0 0 0 0 0 0 0 0 -0 0 0 0 0 0 0 0 0 0 -16
0 0 0 0 0 0 0 0 0 0 0 0 0 0 -9 0 0 0 0 0 0 0 0 0 0 0 0 0 0 0 0 -0 0 -0 -0 0 0 0 0 0 0 0 0 0
0 0 0 0 0 0 0 0 0 0 0 0 0 0 0 0 0 0 0 0 0 0 0 0 0 0 0 0 0 0 -0 0 -0 -0 0 0 0 0 0 0 0 0 0 0
0 0 0 0 0 0 0 0 0 0 0 0 0 0 0 0 0 0 0 0 0 0 0 0 0 0 0 0 0 0 0 0 -0 0 -0 -0 0 0 0 0 0 0 0 0
0 0 0 0 0 0 0 0 0 0 0 0 0 0 0 0 0 0 0 -0 -0 0 0 0 0 0 0 0 0 0 0 0 0 0 0 -0 0 0 0 0 0 0 0 0
0 0 0 0 0 0 0 0 0 0 0 0 0 0 0 0 0 -0 0 -0 0 0 0 0 0 0 0 0 0 0 0 0 0 0 -0 -0 -0 0 0 0 0 0 0 0
0 0 0 0 0 0 -10 0 0 0 0 0 0 0 0 0 0 0 0 0 0 0 0 0 0 0 0 0 0 0 0 0 0 -0 -0 0 -0 0 0 0 0 0 0 0
0 0 0 0 0 0 -1 0 0 0 0 0 0 0 0 0 0 0 0 0 0 0 0 0 0 0 0 0 0 -1 -1 0 0 0 -0 0 0 0 0 0 0 0 0 0
0 0 0 0 0 -2 0 0 0 0 0 0 0 0 0 0 0 0 0 0 0 0 0 0 0 0 0 0 0 -0 -0 0 0 0 0 -0 0 0 0 0 0 0 0 0
0 0 0 0 0 0 0 0 0 0 0 0 0 0 0 0 0 0 -0 -0 0 0 0 0 0 0 0 0 -1 -0 -0 0 0 0 0 -0 0 0 0 0 0 0 0 0
0 0 0 0 0 -15 0 0 0 0 -0 0 -0 0 0 0 -0 0 0 0 0 0 0 0 0 0 0 0 0 -2 -0 0 0 0 0 0 0 0 0 0 0 0 0 0
0 0 -1 -7 -23 0 -1 0 0 0 -0 0 -0 0 0 -0 -0 -1 -0 0 0 0 0 0 0 0 -1 0 -0 0 0 0 0 -1 0 0 -0 -0 0 0 0 0 0 0
-5 -5 -8 -4 -1 0 0 0 0 0 -3 0 -0 -0 0 -1 -0 -0 -1 0 0 0 0 0 0 0 0 -0 -1 -1 -1 0 -0 -0 0 0 0 0 0 0 0 0 0 -0
0 -36 -9 -0 0 0 0 -0 0 0 0 -0 -1 -0 0 0 -0 0 -0 0 0 -0 -1 0 -1 -0 0 -1 -1 -1 -0 0 -1 -0 -0 -0 0 0 0 0 0 0 0 0
Wind_Speed
5 12 16 12 9 11 19 22 21 18 19 23 26 30 28 22 16 14 18 24 28 31 35 39 42 45 46 49 52 53 56 55 55 55 54 53 50 47 48 46 40 36 35 32
15 18 15 17 16 16 19 23 24 22 22 25 27 29 27 15 13 14 20 25 30 34 39 42 45 46 48 50 52 55 56 56 55 53 52 52 53 53 47 48 46 45 39 37
16 16 15 11 16 22 23 23 22 26 28 29 25 21 18 9 9 11 20 26 32 37 40 43 46 48 49 51 53 55 55 55 51 48 48 46 49 48 49 47 50 52 45 43
20 17 16 17 19 17 22 24 18 23 27 25 21 32 12 6 5 13 23 29 34 38 41 43 45 48 51 51 52 54 53 53 53 50 50 48 50 52 50 51 56 56 56 54
19 16 17 19 19 14 22 21 22 25 27 27 22 23 18 7 4 16 26 30 34 38 41 43 45 48 50 52 53 54 55 55 52 50 47 49 51 51 52 49 54 64 67 61
24 22 18 21 18 14 22 25 24 21 22 27 24 15 13 6 14 20 26 30 34 39 41 43 43 46 50 51 52 56 58 51 48 48 49 50 54 53 52 56 44 57 69 55
22 21 20 19 18 19 20 23 27 22 21 24 18 15 16 11 14 20 26 31 34 39 42 44 46 47 50 52 56 58 55 52 52 52 51 50 51 56 52 59 45 50 62 65
26 26 19 16 18 18 19 17 23 27 24 22 13 21 15 10 14 21 27 32 37 41 42 43 44 45 50 55 55 58 52 52 53 53 51 48 47 48 46 56 51 47 55 61
21 24 14 14 15 18 17 22 22 24 26 28 24 21 10 9 18 25 30 34 38 41 41 43 43 43 50 52 53 55 46 49 48 50 47 45 42 39 44 48 49 51 53 52
23 22 15 17 17 20 21 16 20 19 26 26 24 17 14 16 22 27 31 36 40 41 42 42 44 46 50 50 49 48 44 48 42 39 42 39 36 35 37 45 52 47 52 27
24 25 19 15 22 22 19 19 19 22 22 25 26 21 15 17 22 27 33 37 39 42 42 42 42 48 49 48 47 44 47 47 45 36 30 30 28 29 29 32 39 41 55 45
22 26 28 20 24 19 16 18 17 22 23 19 24 25 17 18 23 27 31 35 39 41 41 41 41 49 49 50 47 45 44 43 43 32 22 21 21 21 21 24 27 31 37 38
22 28 30 24 23 27 24 19 15 17 21 22 24 21 12 18 23 27 32 36 39 40 41 41 40 48 49 49 47 49 42 41 42 34 32 29 18 19 19 20 24 21 26 34
21 28 31 32 26 20 21 18 16 16 18 24 21 21 18 28 29 32 35 37 38 39 40 41 40 45 47 47 48 48 44 40 40 37 34 32 30 25 24 22 22 23 24 25
23 31 31 29 28 23 19 16 16 17 19 22 23 28 29 28 30 31 32 35 37 39 41 41 41 41 46 46 48 47 47 41 39 37 35 33 32 30 29 27 25 23 21 20
23 29 29 32 27 28 28 19 20 20 19 22 24 26 22 25 28 30 32 34 36 39 40 41 40 41 45 44 45 46 45 42 38 36 35 34 33 32 31 30 28 26 23 20
25 29 26 32 24 27 30 24 24 24 23 23 24 25 24 27 30 30 31 32 35 37 39 40 40 40 43 43 43 43 43 41 37 36 34 34 34 33 32 32 30 27 24 22
24 27 26 33 23 33 26 19 21 24 20 19 20 19 22 25 27 24 26 31 34 36 38 39 39 39 40 42 42 41 40 39 38 38 35 33 33 33 32 31 31 30 26 24
23 24 30 30 29 26 20 20 20 19 16 14 15 18 20 24 27 21 27 31 32 34 36 37 37 38 39 40 41 40 39 39 37 37 36 35 35 32 31 30 29 28 27 24
19 23 27 25 29 30 26 12 14 14 16 11 11 16 20 24 25 24 31 32 32 33 34 36 36 36 38 39 40 38 37 38 37 36 34 34 32 30 28 26 25 24 23 23
28 23 28 29 29 24 13 11 10 17 15 11 13 16 19 23 24 27 29 30 31 32 34 35 35 35 36 38 38 37 36 37 37 35 33 32 31 30 29 27 25 24 21 22
24 25 27 26 26 26 5 10 17 11 10 11 14 17 20 23 25 26 28 30 31 32 33 34 34 35 35 36 36 36 36 36 35 34 32 31 30 29 29 26 25 23 21 20
25 22 20 20 22 7 6 9 9 11 10 13 16 17 21 23 25 27 29 29 30 31 32 33 33 34 34 35 35 35 35 34 33 32 31 30 29 27 28 26 25 24 23 21
16 8 14 11 8 4 7 8 10 11 12 14 17 19 20 24 24 27 28 29 30 31 32 33 33 33 34 34 33 33 33 33 31 30 29 29 28 27 26 25 25 23 22 22
11 7 6 8 1 4 7 9 10 13 14 17 18 20 22 23 24 26 27 27 29 30 32 32 32 33 33 33 32 32 32 31 29 28 27 27 27 26 25 23 23 23 23 22
8 6 5 7 2 11 5 8 10 13 16 18 18 20 22 23 25 25 26 27 29 30 30 31 31 32 32 31 31 31 31 30 29 27 26 26 26 26 25 24 22 21 22 23
Wind_Direction
334 314 305 316 313 314 318 311 311 320 325 319 318 316 319 326 336 339 341 340 338 337 333 331 329 327 326 324 320 318 312 309 306 300 292 286 283 274 269 267 264 246 242 238
303 300 307 317 316 317 315 311 307 313 318 321 319 317 319 331 336 340 340 339 338 334 330 330 329 330 330 327 325 321 316 313 310 304 296 288 282 278 269 265 260 260 237 234
291 309 321 311 311 306 306 307 309 312 314 317 316 315 314 334 338 351 348 343 338 335 334 331 331 333 333 331 329 326 323 320 316 309 302 293 285 279 269 261 258 253 251 232
289 298 300 302 302 310 307 315 315 316 318 319 330 317 321 300 323 345 342 341 337 337 337 335 335 336 336 334 332 329 326 322 313 308 300 292 283 275 272 261 256 251 248 234
286 295 295 296 298 300 311 316 313 314 314 315 313 314 319 255 295 339 339 340 340 340 339 338 338 338 337 335 334 332 326 320 316 309 304 294 285 275 270 269 255 249 247 253
281 297 293 295 301 304 310 311 311 312 312 311 310 296 320 308 323 332 338 340 340 341 341 340 341 340 339 340 336 331 322 329 325 316 309 297 283 277 267 260 261 249 244 244
279 276 291 296 293 302 304 307 310 309 308 316 333 327 312 330 336 335 339 339 342 342 341 342 343 343 343 341 334 330 334 331 325 320 312 300 287 276 259 254 255 256 244 243
271 276 274 281 278 293 296 290 302 311 310 316 328 322 328 355 350 349 345 343 341 342 344 346 347 346 346 339 337 339 340 333 330 324 314 306 292 279 257 249 251 252 247 240
273 279 280 290 282 290 294 295 309 306 304 308 304 311 341 342 339 340 341 342 343 344 347 347 349 351 345 344 343 345 346 342 342 327 316 311 297 281 258 249 251 254 253 238
285 282 278 287 293 285 290 309 306 306 308 303 309 307 318 324 330 338 341 341 344 346 348 350 352 349 343 347 350 354 350 344 353 314 320 311 298 284 273 255 248 257 255 242
272 283 278 283 280 280 280 286 299 305 303 307 308 312 328 327 332 337 339 342 344 346 349 352 355 345 342 350 357 358 337 333 329 319 314 310 301 292 281 263 254 255 235 250
264 282 276 266 290 276 284 286 284 298 303 298 307 305 337 337 337 342 341 342 343 348 351 354 357 339 339 345 356 0 327 329 333 321 317 315 305 297 291 274 267 273 249 246
260 273 270 272 280 283 284 280 280 286 301 297 299 312 347 345 341 342 341 343 345 348 350 354 358 340 339 343 355 351 325 325 331 323 324 323 314 302 289 287 300 275 263 256
260 268 269 267 286 291 280 273 272 278 287 299 294 302 305 330 333 335 337 339 343 347 348 352 357 349 338 346 352 350 330 325 327 326 324 326 323 322 312 304 309 303 278 282
265 265 271 274 283 290 294 281 264 267 278 295 301 304 313 324 329 334 337 339 342 345 347 352 356 357 333 335 342 345 339 329 326 328 325 325 324 323 318 308 314 322 316 283
263 272 269 271 279 286 291 289 282 280 279 285 294 301 320 326 329 333 336 338 341 343 346 350 353 354 336 332 333 338 340 332 329 326 326 323 323 323 324 318 318 322 324 308
265 269 271 274 280 286 283 283 283 289 285 289 292 302 318 321 325 330 335 339 340 343 346 347 351 352 340 334 332 331 335 334 329 329 325 327 323 321 321 320 320 324 318 316
265 263 271 277 285 278 292 302 291 283 285 287 297 311 318 322 326 335 341 339 341 344 344 346 350 349 345 333 333 333 336 331 333 333 327 327 330 327 321 321 316 313 318 320
261 269 270 271 275 290 297 299 298 297 287 295 296 310 319 325 327 338 341 341 342 344 344 346 348 349 344 335 333 334 335 334 333 331 331 330 335 332 329 328 323 311 309 321
259 266 268 280 275 281 294 295 319 322 297 320 319 320 324 326 325 333 335 338 341 344 344 345 346 346 343 335 334 331 333 335 333 329 328 330 332 328 330 335 331 318 317 326
254 263 265 268 275 285 299 315 332 302 308 333 330 328 328 326 330 332 337 339 342 343 343 344 343 343 342 339 332 332 330 332 332 329 326 330 331 334 332 332 327 325 326 334
257 261 263 266 273 277 298 317 305 321 333 332 329 331 331 333 334 337 338 340 341 342 342 343 341 340 340 337 330 331 330 326 328 333 329 329 331 334 335 329 326 326 322 324
263 260 266 271 271 328 331 337 341 334 333 335 332 336 335 335 336 337 339 341 342 343 342 341 339 337 337 334 329 326 327 323 325 332 333 330 331 333 338 333 330 329 328 325
274 226 272 283 299 319 342 347 343 345 341 342 340 341 342 338 339 338 341 342 342 343 343 340 337 333 330 328 326 326 324 323 324 326 331 333 332 330 340 342 341 335 327 327
273 264 276 299 344 337 328 335 345 344 350 345 346 346 345 345 343 342 343 344 344 343 340 337 333 329 325 325 326 326 324 325 324 323 326 330 332 333 331 336 342 345 349 340
297 272 270 292 296 314 337 353 354 350 345 347 347 349 353 350 347 347 349 348 344 341 338 335 331 329 324 323 324 322 324 323 326 321 324 327 331 333 334 332 332 344 350 355